Regional Weather Roundup
Issued by NWS Kansas City/Pleasant Hill, MO

Home | Current Version | Previous Version | Graphics & Text | Print | Product List | Glossary Off
Versions: 1 2 3 4 5 6 7 8 9 10 11 12 13 14 15 16 17 18 19 20 21 22 23 24 25 26 27 28 29 30 31 32 33 34 35 36 37 38 39 40 41 42 43 44 45 46 47 48 49 50

060
ASUS43 KEAX 060210
RWREAX

WEATHER ROUNDUP FOR EASTERN KANSAS AND NORTHWEST MISSOURI
NATIONAL WEATHER SERVICE KANSAS CITY/PLEASANT HILL MO
800 PM CST MON DEC 05 2016

KSZ040-057-103>105-MOZ028-029-037-043-060300-
...KANSAS CITY METROPOLITAN AREA...

CITY           SKY/WX    TMP DP  RH WIND       PRES   REMARKS
K.C. INTL      CLEAR     40  32  73 S9        29.72F WCI  34
K.C. DOWNTOWN  CLEAR     43  33  68 S8        29.73F
LEES SUMMIT    CLEAR     40  33  76 SE6       29.74F
OLATHE - IXD   CLEAR     38  33  82 SE5       29.73S WCI  34
OLATHE - OJC   CLEAR     38  33  82 SE10      29.73F WCI  31
LAWRENCE       CLEAR     36  32  85 E3        29.74R

$$

MOZ001>008-011>017-020>025-030>033-038>040-044>046-053-054-060300-
...NORTHERN AND CENTRAL MISSOURI...

CITY           SKY/WX    TMP DP  RH WIND       PRES   REMARKS
ST. JOSEPH     CLEAR     36  31  82 SE5       29.75R WCI  32
MOSBY          CLEAR     41  32  70 SE7       29.74F
WARRENSBURG    CLEAR     37  32  81 E9        29.76F WCI  31
WHITEMAN AFB   PTCLDY    35  35 100 SE7       29.75F WCI  29
CLINTON        CLEAR     32  32 100 CALM      29.77F
SEDALIA        CLEAR     36  32  85 E3        29.79F
WARSAW         NOT AVBL
CHILLICOTHE      N/A     39  34  82 SE8       29.78F WCI  33
KIRKSVILLE     CLOUDY    36  35  96 SE8       29.82S FOG     WCI  30

$$

MOZ041-047>049-056>058-063>065-088>090-097-060300-
...EASTERN AND SOUTHERN MISSOURI...

CITY           SKY/WX    TMP DP  RH WIND       PRES   REMARKS
ST. LOUIS INTL CLOUDY    40  33  76 E13       29.85F WCI  32
SPIRIT OF STL  MOCLDY    39  35  86 E8        29.84F WCI  33
COLUMBIA       CLEAR     36  34  92 E8        29.80S WCI  30
JEFFERSON CITY CLEAR     36  34  92 SE5       29.81S WCI  32
ROLLA          CLOUDY    35  32  88 SE9       29.77F WCI  28
OSAGE BEACH    CLEAR     40  33  76 E5        29.79F
SPRINGFIELD    PTCLDY    40  34  79 SE9       29.74F WCI  34
BRANSON        CLOUDY    39  37  93 SE6       29.76S WCI  35
JOPLIN         PTCLDY    38  36  92 VRB5      29.75S WCI  34
WEST PLAINS    CLOUDY    40  37  89 SE7       29.80F

$$

IAZ060-094-KSZ022-034>040-054-083-096-NEZ052-066-093-060300-
...KANSAS...SOUTHEAST NEBRASKA AND IOWA...

CITY           SKY/WX    TMP DP  RH WIND       PRES   REMARKS
TOPEKA         CLEAR     41  34  76 S3        29.73R
MANHATTAN      CLEAR     40  34  79 S5        29.71R
EMPORIA        CLEAR     36  35  96 SE8       29.71S WCI  30
CHANUTE        CLEAR     36  35  96 E5        29.72F WCI  32
WICHITA        CLEAR     39  36  89 S7        29.69R WCI  34
OMAHA          LGT RAIN  45  37  73 S8        29.72S
LINCOLN        CLOUDY    42  37  82 N6        29.74R
FALLS CITY     CLEAR     38  34  85 SE7       29.73R WCI  33
LAMONI         CLEAR     38  33  82 SE10      29.74S WCI  31
DES MOINES     MOCLDY    40  35  83 S8        29.77R WCI  34

$$





USA.gov is the U.S. government's official web portal to all federal, state and local government web resources and services.